Simultaneous Nadir Overpasses (SNOs) Predictions

Prediction of SNOs between GOES-15 and METOP-B Satellite Orbit:

Table of predicted SNOs for the next 14.0 days since TLE Epoch: 11/2/2024
Index Date Time (GOES-15) GOES-15 Lat,Lon METOP-B Lat,Lon Distance(km) Time Diff (sec)
1 11/03/2024 05:23:00 -0.26, 61.36 0.42, 58.22 357.43 80
2 11/04/2024 05:04:56 -0.26, 61.37 -0.65, 63.23 211.71 80
3 11/05/2024 17:23:49 0.25, 61.52 -0.37, 58.65 326.45 80
4 11/06/2024 17:00:25 0.25, 61.54 0.72, 63.66 241.60 80
5 11/08/2024 05:19:09 -0.24, 61.45 0.29, 59.11 266.69 80
6 11/09/2024 05:01:05 -0.24, 61.47 -0.81, 64.12 302.02 80
7 11/10/2024 17:19:57 0.24, 61.61 -0.23, 59.55 235.73 80
8 11/11/2024 16:56:32 0.24, 61.64 0.89, 64.55 332.07 80
9 11/13/2024 05:15:16 -0.23, 61.56 0.14, 60.01 177.24 80
10 11/14/2024 04:57:11 -0.23, 61.58 -1.00, 65.02 391.23 80
11 11/15/2024 17:16:02 0.23, 61.73 -0.06, 60.45 146.21 80
